This demonstration page uses our WeatherBlox Daily Observations layout. Learn more.

Left ArrowRight Arrow

Hourly Observations for June 28, 2015

Temp ( °F °C ) Dew Point ( °F °C ) Humidity (%) Winds ( mph kmh ) Pressure ( in mb ) Visibility ( mi km ) Precip ( " mm )
12:59 am 00:59 Mostly Cloudy with Mist and Fog 76 24.4 74 23.3 94 94 SSW 9 15 29.71 1006 6 10 0.00 0.03
1:59 am 01:59 Mostly Cloudy 76 24.4 73 22.8 91 91 SW 9 15 29.70 1006 9 14 0.00 0.00
2:59 am 02:59 Mostly Cloudy 66 18.9 64 17.8 93 93 SW 9 15 29.68 1005 9 14 0.03 0.76
3:59 am 03:59 Mostly Cloudy 74 23.3 71 21.7 91 91 WSW 13 20 29.70 1006 10 16 0.00 0.00
4:59 am 04:59 Mostly Cloudy 73 22.8 71 21.7 94 94 SW 7 11 29.72 1006 9 14 0.00 0.00
5:59 am 05:59 Mostly Cloudy 73 22.8 70 21.1 90 90 SW 8 13 29.74 1007 9 14 0.00 0.00
6:59 am 06:59 Mostly Sunny 74 23.3 70 21.1 88 88 WSW 7 11 29.76 1008 8 13 0.00 0.00
7:59 am 07:59 Mostly Cloudy 75 23.9 68 20 79 79 W 12 19 29.78 1009 10 16 0.00 0.00
8:59 am 08:59 Cloudy 74 23.3 65 18.3 74 74 W 10 17 29.79 1009 10 16 0.00 0.00
9:59 am 09:59 Partly Cloudy 74 23.3 62 16.7 67 67 W 14 22 29.80 1009 10 16 0.00 0.00
10:59 am 10:59 Partly Cloudy 76 24.4 60 15.6 58 58 WSW 15 24 29.80 1009 10 16 0.00 0.00
11:59 am 11:59 Mostly Sunny 77 25 60 15.6 56 56 W 15 24 29.80 1009 10 16 0.00 0.00
12:59 pm 12:59 Partly Cloudy 79 26.1 60 15.6 52 52 W 16 26 29.80 1009 10 16 0.00 0.00
1:59 pm 13:59 Sunny 80 26.7 59 15 49 49 WSW 15 24 29.80 1009 10 16 0.00 0.00
2:59 pm 14:59 Mostly Cloudy 80 26.7 59 15 49 49 W 14 22 29.81 1010 10 16 0.00 0.00
3:59 pm 15:59 Mostly Cloudy 81 27.2 59 15 47 47 W 13 20 29.81 1010 10 16 0.00 0.00
4:59 pm 16:59 Mostly Cloudy 80 26.7 60 15.6 51 51 W 14 22 29.82 1010 10 16 0.00 0.00
5:59 pm 17:59 Mostly Cloudy 79 26.1 60 15.6 52 52 W 13 20 29.83 1010 10 16 0.00 0.00
6:59 pm 18:59 Mostly Cloudy 79 26.1 59 15 50 50 W 12 19 29.86 1011 10 16 0.00 0.00
7:59 pm 19:59 Mostly Cloudy 77 25 60 15.6 56 56 W 8 13 29.89 1012 10 16 0.00 0.00
8:59 pm 20:59 Mostly Cloudy 76 24.4 61 16.1 60 60 WSW 7 11 29.90 1013 10 16 0.00 0.00
9:59 pm 21:59 Mostly Cloudy 75 23.9 62 16.7 64 64 W 5 7 29.90 1013 10 16 0.00 0.00
10:59 pm 22:59 Mostly Cloudy 74 23.3 59 15 60 60 NNW 13 20 29.92 1013 10 16 0.00 0.00
11:59 pm 23:59 Partly Cloudy 70 21.1 61 16.1 73 73 N 5 7 29.92 1013 10 16 0.00 0.00

Powered by AerisWeather